Regional Weather Roundup
Issued by NWS Lake Charles, LA

Home | Current Version | Previous Version | Text Only | Print | Product List | Glossary On
Versions: 1 2 3 4 5 6 7 8 9 10 11 12 13 14 15 16 17 18 19 20 21 22 23 24 25 26 27 28 29 30 31 32 33 34 35 36 37 38 39 40 41 42 43 44 45 46 47 48 49 50
000
ASUS44 KLCH 181810
RWRLCH
RWRLCH
REGIONAL WEATHER ROUNDUP
NATIONAL WEATHER SERVICE LAKE CHARLES LA
1200 PM CST THU DEC 18 2014

Note: "fair" indicates few or no clouds below 12,000 feet with no
significant weather and/or obstructions to visibility.


ACROSS SOUTHEAST TEXAS

CITY           SKY/WX    TMP DP  RH WIND       PRES   REMARKS
BEAUMONT       LGT RAIN  60  58  92 NE7       30.09F FOG
BEAUMONT CITY  CLOUDY    57  56  97 NE8       30.10F FOG
ORANGE         CLOUDY    59  56  91 N6        30.12F FOG
JASPER         CLOUDY    56  51  86 E5        30.15F
$$

ACROSS CENTRAL LOUISIANA

CITY           SKY/WX    TMP DP  RH WIND       PRES   REMARKS
LEESVILLE      CLOUDY    51  50  95 E5        30.13F
FULLERTON      CLOUDY    53  49  86 CALM      30.11F
ALEXANDRIA INT CLOUDY    50  48  93 NE3       30.14F
ESLER FIELD    CLOUDY    52  48  86 NE5       30.15F
DERIDDER       CLOUDY    53  51  94 NE3       30.15F
OAKDALE        RAIN      51  50  93 NE5       30.13F
OPELOUSAS      CLOUDY    62  52  69 N5        30.11F
$$

ACROSS SOUTHWEST AND SOUTH CENTRAL LOUISIANA

CITY           SKY/WX    TMP DP  RH WIND       PRES   REMARKS
SULPHUR        CLOUDY    63  56  79 N3        30.11F
LAKE CHARLES   CLOUDY    63  57  81 N8        30.10F
CHENNAULT INT  CLOUDY    61  54  77 N10       30.12F
CAMERON PHI    CLEAR     64  63  94 SE9       30.12F
DEQUINCY       CLOUDY    53  53 100 CALM      30.12F
JENNINGS       CLOUDY    64  57  78 CALM      30.10F
LAFAYETTE      CLOUDY    66  54  65 S6        30.11F
NEW IBERIA     CLOUDY    69  56  62 SE8       30.11F
ABBEVILLE      CLOUDY    66  57  73 SE12      30.11F
PATTERSON      PTSUNNY   64  55  72 E8        30.14F
SALT POINT       N/A     69  57  65 SE10      30.11
$$

SELECTED SITES ACROSS THE REGION

CITY           SKY/WX    TMP DP  RH WIND       PRES   REMARKS
HOUSTON BUSH   CLOUDY    64  59  83 NE6       30.10F FOG
HOUSTON HOBBY  CLOUDY    68  64  87 N3        30.08F
GALVESTON      CLOUDY    65  64  97 N5        30.10F FOG
COLLEGE STAT   CLOUDY    59  53  80 NW3       30.12F
CONROE         PTSUNNY   65  58  78 N6        30.11F
HUNTSVILLE     CLOUDY    64  55  72 VRB3      30.10F
LUFKIN         CLOUDY    58  48  69 N5        30.13F
SHREVEPORT     CLOUDY    49  44  83 E6        30.15F
MONROE         CLOUDY    50  45  83 VRB3      30.18F
NATCHEZ MS     CLOUDY    48  45  87 NE5       30.17F
BATON ROUGE    LGT RAIN  62  52  69 SE7       30.13F
N.O. INTL ARPT PTSUNNY   67  52  58 SE8       30.14F
SLIDELL        MOSUNNY   66  48  52 S9        30.14F
$$

MARINE REPORTS

STATION/POSITION TIME  TEMP    WIND        PRES    VSBY  WAVE
                       AIR SEA DIR/SP/G                  HT/PER
                 (UTC) (F)     (DEG/KT/KT) (MB)    (MI)  (FT/S)
BUOY 30 S HIGH I 1800   66 65  220/  8/ 12 1018.5F         3/ 6
SEA RIM ST PARK  1800   64      10/  7/ 10 1019.2F
PORT ARTHUR      1800      62   30/  2/  5 1019.2F
SABINE PASS N    1800   66 62   90/  6/  9 1018.6F
TEXAS POINT      NOT AVBL
CALCASIEU PASS   1800   63 60  120/  8/ 11   N/A
LK CHARLES BEACH 1800   59 62              1019.6F
MARSH ISLAND     NOT AVBL
FRESH WATER LOCK 1800   60 61   70/  7/  9 1019.5F
AMERADA PASS     1800   65 51  120/  6/ 11 1020.0F
$$


USA.gov is the U.S. government's official web portal to all federal, state and local government web resources and services.